Tracking 29892 objects as of 21-Nov-2024
HD Live streaming from Space Station
objects crossing your sky now

STARLINK-11095

Track STARLINK-11095 now!
10-day predictions
STARLINK-11095 is classified as:


NORAD ID: 59720
Int'l Code: 2024-088N
Perigee: 366.3 km
Apogee: 367.4 km
Inclination: 53.2 °
Period: 91.7 minutes
Semi major axis: 6737 km
RCS: Unknown
Launch date: May 10, 2024
Source: United States (US)
Launch site: AIR FORCE WESTERN TEST RANGE (AFWTR)
Your satellite tracking list
Your tracking list is empty




NASA's NSSDC Master Catalog

Two Line Element Set (TLE):
1 59720U 24088N   24325.53060094  .00000964  00000-0  12807-4 0  9999
2 59720  53.1584 143.4454 0000795  95.2357 264.8752 15.69709870 31682
Source of the keplerian elements: AFSPC